Вернуться в каталог

SL-14 DEB

АктивенPO
NORAD 19295·DEBRIS·🇷🇺 Russia

Запущен Oct 26, 1978 с Plesetsk Cosmodrome

Loading…

Ближайшие Пролёты (ближайшие 24 часа)

TLE

СвежийSource: Space-Track

Эпоха: Sep 14, 2026, 14:45 UTC

1 19295U 78100AE  26257.61479244 -.00000295  00000-0 -23846-2 0  9994
2 19295  81.9847 308.9034 0504360  72.6253  75.1685 12.07079746683940

Отслеживайте SL-14 DEB в реальном времени с AllMySat

Download on the App Store